Tracking 18945 objects as of 20-Jan-2018
HD Live streaming from Space Station
objects crossing your sky now

HELIOS-2A

Track HELIOS-2A now!
10-day predictions
HELIOS-2A is classified as:


NORAD ID: 28492
Int'l Code: 2004-049A
Perigee: 684.3 km
Apogee: 691.3 km
Inclination: 98.1 °
Period: 98.4 minutes
Semi major axis: 7058 km
RCS: Unknown
Launch date: December 18, 2004
Source: France (FR)
Launch site: FRENCH GUIANA (FRGUI)

Optical reconnaissance; independent military intelligence capability for the EU.
aabbcc
Your satellite tracking list
Your tracking list is empty




NASA's NSSDC Master Catalog

Two Line Element Set (TLE):
1 28492U 04049A   17353.16064827 0.00000400  00000-0  76615-4 0    01
2 28492  98.0813 287.3151 0005000 226.7492 133.2506 14.63887222    03
Source of the keplerian elements: McCants